Regional Weather Roundup
Issued by NWS

Home | Current Version | Previous Version | Graphics & Text | Print | Product List | Glossary On
Versions: 1 2 3 4 5 6 7 8 9 10 11 12 13 14 15 16 17 18 19 20 21 22 23 24 25 26 27 28 29 30 31 32 33 34 35 36 37 38 39 40 41 42 43 44 45 46 47 48 49 50
000
ASUS43 KDTX 062101
RWRMI
MICHIGAN HOURLY REGIONAL WEATHER ROUNDUP
NATIONAL WEATHER SERVICE DETROIT/PONTIAC MI
500 PM EDT MON JUL 06 2015

NOTE: "FAIR" INDICATES FEW OR NO CLOUDS BELOW 12,000 FEET WITH NO
SIGNIFICANT WEATHER AND/OR OBSTRUCTION TO VISIBILITY.

MIZ047>049-052>055-059>063-066>070-074>076-081>083-062200-
SOUTHEAST LOWER MICHIGAN

CITY           SKY/WX    TMP DP  RH WIND       PRES   REMARKS
ADRIAN         SUNNY     84  62  47 SW13      29.99F
ALMA           PTSUNNY   83  63  50 S12G20    29.94F
ANN ARBOR      SUNNY     83  63  50 SW10      29.97F
BAD AXE        PTSUNNY   83  57  40 SW10G18   29.95F
CARO           MOSUNNY   84  62  46 S12       29.94F
DETROIT CITY   SUNNY     83  62  49 SW10      29.98F
DETROIT        PTSUNNY   84  61  45 SW8       29.98F
FLINT          MOSUNNY   85  61  44 S9        29.96F
GROSSE ILE     SUNNY     79  66  65 SE9       29.98F
HILLSDALE      SUNNY     83  64  52 SW7       30.00R
HOWELL         MOSUNNY   83  61  47 SW9       29.97F

CITY           SKY/WX    TMP DP  RH WIND       PRES   REMARKS
JACKSON        MOSUNNY   82  65  56 S8        29.98F
LAMBERTVILLE   SUNNY     84  60  44 S6        29.99F
LANSING        PTSUNNY   82  65  56 S13       29.96F HAZE
LAPEER         FAIR      85  53  33 S8        29.97F
MASON          MOSUNNY   80  63  57 S8        29.97S
MONROE         MOSUNNY   81  67  62 SE8       29.98F
MT. CLEMENS    PTSUNNY   81  62  51 S15       29.97F
PONTIAC        PTSUNNY   83  59  44 S13       29.97F
PORT HOPE        N/A     78  62  57 SE14      29.93F
PORT HURON     SUNNY     82  57  42 SE9       29.98F
TRI CITIES     PTSUNNY   85  63  47 S15G22    29.94F
MIDLAND        PTSUNNY   84  63  48 S12       29.92F
TROY           SUNNY     86  56  36 S7        29.99F
SAGINAW HB     PTSUNNY   84  59  42 S14G21    29.94S
$$
MIZ043>046-050>051-056>058-064>065-071>073-077>080-062200-
SOUTHWEST LOWER MICHIGAN

CITY           SKY/WX    TMP DP  RH WIND       PRES   REMARKS
BATTLE CREEK   MOSUNNY   83  66  56 S15       29.97F
BENTON HARBOR  PTSUNNY   85  68  56 S13       29.92F
BIG RAPIDS     PTSUNNY   81  61  50 S10G17    29.92F
COLDWATER      MOSUNNY   82  65  57 S6        29.97F
FREMONT        PTSUNNY   85  58  39 SW18      29.91F HAZE
HOLLAND        PTSUNNY   87  66  49 S9        29.93F
GRAND RAPIDS   CLOUDY    84  64  50 S10       29.93F
IONIA          FAIR      85  64  50 SW13      29.94F
KALAMAZOO      MOSUNNY   84  66  54 S15       29.95F
LUDINGTON      PTSUNNY   81  68  64 S15       29.87F
MARSHALL       MOSUNNY   83  66  56 S8        29.97S
MOUNT PLEASANT PTSUNNY   83  63  50 S13       29.93S
MUSKEGON       CLOUDY    83  63  50 S16G23    29.91F
SOUTH HAVEN    PTSUNNY   84  66  54 S8        29.92F
$$
MIZ016>042-062200-
NORTHERN LOWER MICHIGAN

CITY           SKY/WX    TMP DP  RH WIND       PRES   REMARKS
ALPENA         PTSUNNY   87  62  43 S16       29.89F
BEAVER ISLAND  PTSUNNY   77  64  64 S6        29.83F
BELLAIRE       PTSUNNY   84  61  45 S10G21    29.86F
CADILLAC       PTSUNNY   82  64  54 SW20G25   29.92F
CHARLEVOIX     MOSUNNY   84  63  48 SW16G22   29.87F
FRANKFORT      PTSUNNY   82  59  46 SW9G17    29.84F
GAYLORD        PTSUNNY   83  62  49 SW15      29.90F HAZE
GRAYLING       PTSUNNY   82  63  52 S10G17    29.92F
HARBOR SPRINGS PTSUNNY   82  64  53 SW9       29.85F
HOUGHTON LAKE  PTSUNNY   81  64  56 S9        29.93S
MANISTEE       PTSUNNY   81  63  54 S13G22    29.86F
OSCODA         PTSUNNY   83  61  47 S12G22    29.92S
PELLSTON       PTSUNNY   85  64  49 SW7       29.85F
ROGERS CITY    CLOUDY    83  65  53 S12G18    29.88F
TRAVERSE CITY  PTSUNNY   86  63  45 SW13G21   29.83F
$$
MIZ007>008-015-062200-
EASTERN UPPER MICHIGAN

CITY           SKY/WX    TMP DP  RH WIND       PRES   REMARKS
KINROSS        CLOUDY    79  66  65 S8        29.85F
MACKINAC ISLAN PTSUNNY   77  64  63 E6        29.85F
NEWBERRY       CLOUDY    71  64  77 S10G18    29.82F
S. S. MARIE    CLOUDY    79  64  60 S12       29.84F
$$
MIZ004>006-011>014-085-062200-
CENTRAL UPPER MICHIGAN

CITY           SKY/WX    TMP DP  RH WIND       PRES   REMARKS
MANISTIQUE     CLOUDY    60  58  92 S6        29.82F FOG
ESCANABA       CLOUDY    66  64  94 S7        29.79F
MENOMINEE      CLOUDY    75  66  73 S7        29.78S
SAWYER-GWINN   RAIN      70  68  94 S10       29.79F
$$
MIZ001>003-009>011-084-062200-
WESTERN UPPER MICHIGAN

CITY           SKY/WX    TMP DP  RH WIND       PRES   REMARKS
IRON MOUNTAIN  LGT RAIN  72  69  90 S5        29.78F FOG
HOUGHTON       LGT RAIN  59  56  89 N6        29.87R FOG
COPPER HARBOR    N/A     49  47  93 N3        29.86R
IRONWOOD       CLOUDY    55  55 100 N5        29.89R VSB 1
$$

ABBREVIATIONS USED IN REMARKS
   TC - TEMPERATURE IN CELSIUS
  WCI - WIND CHILL INDEX
   HX - HEAT INDEX
  VSB - VISIBILITY




USA.gov is the U.S. government's official web portal to all federal, state and local government web resources and services.